#timestamp,LO_Frequency,Hit,StdDev 
1558285215.4,286046998.5,P
1558285235.2,286047001.2,N
1558285255.0,286047000.0,N
1558285255.9,286047000.0,N
1558285275.8,286047000.1,N
1558285295.6,286047000.7,N
1558285315.5,286046998.6,N
1558285335.3,286046998.4,N
1558285355.1,286046998.4,N
1558285375.9,286046999.0,N
1558285395.7,286046999.4,N
1558285415.5,286046996.6,Y
1558285435.4,286046998.5,P
1558285455.2,286046996.5,P
1558285475.1,286046998.9,N
1558285476.0,286046998.9,N
1558285495.8,286046998.7,N
1558285515.6,286046998.4,N
1558285535.5,286046998.3,N
1558285555.3,286046999.3,N
1558285575.1,286046999.3,N
1558285595.9,286046999.3,N
1558285615.7,286046998.7,N
1558285635.6,286046998.3,N
1558285655.4,286047000.8,N
1558285675.2,286046998.4,N
1558285695.1,286046998.2,N
1558285696.0,286046998.2,N
1558285715.8,286046998.2,N
1558285735.6,286046999.1,N
1558285755.5,286046996.5,Y
1558285775.3,286046996.9,P
1558285795.2,286046999.2,N
1558285815.9,286046994.9,P
1558285835.7,286046997.8,N
1558285855.6,286046996.2,N
1558285875.4,286046996.1,N
1558285895.2,286046995.0,Y
1558285915.1,286046996.6,P
1558285916.0,286046996.6,P
1558285935.8,286046996.5,P
1558285955.7,286046997.8,Y
1558285975.5,286046998.2,P
1558285995.3,286047000.8,N
1558286015.2,286047000.7,N
1558286035.0,286047000.1,N
1558286035.9,286047000.1,N
1558286055.7,286046999.7,N
1558286075.6,286047001.5,N
1558286095.4,286047003.9,N
1558286115.3,286047003.9,N
1558286135.1,286047001.8,N
1558286136.0,286047001.8,N
1558286155.8,286047003.1,N
1558286175.7,286047004.2,N
1558286195.5,286047003.5,N
1558286215.3,286047003.6,N
1558286235.2,286047005.7,N
1558286255.0,286047005.6,N
1558286255.9,286047005.6,N
1558286275.8,286047005.1,N
1558286295.6,286047005.6,N
1558286315.4,286047004.4,N
1558286335.3,286047004.4,N
1558286355.1,286047003.2,N
1558286375.8,286047004.7,N
1558286395.7,286047005.5,N
1558286415.5,286047003.9,N
1558286435.4,286047004.3,N
1558286455.2,286047003.7,N
1558286475.0,286047003.9,N
1558286475.9,286047003.9,N
1558286495.8,286047003.0,N
1558286515.6,286047003.0,N
1558286535.4,286047004.3,N
1558286555.3,286047004.1,N
1558286575.1,286047001.3,N
1558286595.9,286047001.4,N
1558286615.7,286047003.9,Y
1558286635.5,286046999.1,P
1558286655.4,286046998.1,N
1558286675.2,286046998.3,N
1558286695.0,286047000.9,N
1558286695.9,286047000.9,N
1558286715.8,286047000.0,N
1558286735.6,286047002.8,N
1558286755.5,286047001.9,N
1558286775.3,286047003.6,N
1558286795.1,286047003.5,N
1558286815.9,286047004.0,N
1558286835.7,286047003.6,N
1558286855.5,286047001.8,N
1558286875.4,286047003.8,N
1558286895.2,286047002.0,N
1558286915.1,286047002.0,N
1558286916.0,286047002.0,N
1558286935.8,286047002.8,N
1558286955.6,286047000.2,N
1558286975.5,286047000.5,N
1558286995.3,286047002.4,N
1558287015.1,286047000.2,N
1558287035.9,286047000.7,N
1558287055.7,286046998.3,N
1558287075.6,286046998.7,N
1558287095.4,286046998.7,N
1558287115.2,286046998.8,N
1558287135.1,286047001.2,N
1558287136.0,286047001.2,N
1558287155.8,286047001.0,N
1558287175.7,286046998.9,N
1558287195.5,286046998.9,N
1558287215.3,286046998.8,N
1558287235.2,286046998.8,N
1558287255.0,286046999.3,N
1558287255.9,286046999.3,N
1558287275.7,286046997.4,N
1558287295.6,286046997.3,N
1558287315.4,286046996.9,N
1558287335.3,286046997.5,N
1558287355.1,286046997.5,N
1558287375.8,286046999.5,N
1558287395.7,286046999.2,N
1558287415.5,286046998.6,N
1558287435.3,286046999.0,N
1558287455.2,286046996.5,N
1558287475.0,286046998.4,N
1558287475.9,286046998.4,N
1558287495.8,286046999.5,N
1558287515.6,286047001.1,N
1558287535.4,286047000.9,N
1558287555.3,286047000.3,N
1558287575.1,286047000.8,N
1558287595.8,286046999.7,N
1558287615.7,286047002.4,N
1558287635.5,286047002.4,N
1558287655.4,286047002.9,N
1558287675.2,286047003.1,N
1558287695.0,286047002.9,N
1558287695.9,286047002.9,N
1558287715.8,286047005.8,Y
1558287735.6,286047006.0,P
1558287755.5,286047005.1,N
1558287775.3,286047007.4,N
1558287795.1,286047007.4,N
1558287815.9,286047004.8,N
1558287835.7,286047004.7,N
1558287855.5,286047007.2,N
1558287875.4,286047005.5,N
1558287895.2,286047003.3,N
1558287915.1,286047000.8,N
1558287916.0,286047000.8,N
1558287935.8,286046996.2,N
1558287955.6,286046993.1,N
1558287975.5,286046989.1,N
1558287995.3,286046986.5,N
1558288015.1,286046982.1,N
1558288035.9,286046979.3,N
1558288055.7,286046979.8,N
1558288075.6,286046976.1,N
1558288095.4,286046975.5,N
1558288115.2,286046973.5,N
1558288135.1,286046969.4,N
1558288136.0,286046969.4,N
1558288155.8,286046969.6,N
1558288175.6,286046968.3,N
1558288195.5,286046960.7,N
1558288215.3,286046967.4,N
1558288235.2,286046967.2,N
1558288255.9,286046964.5,N
1558288275.7,286046967.3,N
1558288295.6,286046968.1,N
1558288315.4,286046971.6,N
1558288335.2,286046975.5,N
1558288355.1,286046976.1,N
1558288356.0,286046976.1,N
1558288375.8,286046979.3,N
1558288395.7,286046981.6,N
1558288415.5,286046980.6,N
1558288435.3,286046983.3,N
1558288455.2,286046983.9,N
1558288475.0,286046984.6,N
1558288475.9,286046984.6,N
1558288495.7,286046984.0,N
1558288515.6,286046985.6,N
1558288535.4,286046985.3,N
1558288555.3,286046985.3,N
1558288575.1,286046987.8,N
1558288595.8,286046987.0,N
1558288615.7,286046990.0,N
1558288635.5,286046989.1,N
1558288655.4,286046989.0,N
1558288675.2,286046988.9,N
1558288695.0,286046991.2,N
1558288695.9,286046991.2,N
1558288715.8,286046991.2,N
1558288735.6,286046991.2,N
1558288755.5,286046988.5,N
1558288775.3,286046988.9,N
1558288795.1,286046988.9,N
